Location: ??????
(41.3747°N, 22.5491°E)
Time: 15:54:48
(UTC+00:00)

YAOGAN 1 - Pass Details

Date: 01 December 2020
Orbit: 618 x 620 km, 97.9° (Epoch: 20 January)

Event Time Altitude Azimuth Distance (km) Brightness Sun altitude
Rises 17:00:34 0° 160° (SSE) 2,882 5.9 -21.9°
Enters shadow 17:01:50 - 159° (SSE) 2,358 5.4 -22.1°
Exits shadow 17:09:19 27° 358° (N) 1,197 3.9 -23.5°
Drops below altitude 10° 17:11:21 10° 352° (N) 1,996 5.1 -23.9°
Sets 17:13:33 0° 350° (N) 2,907 6.0 -24.3°
